Weather in Omolon

Russia / Chukotka Autonomous Okrug     65°14′08″N   160°32′15″E
temp.,
°C
wind,
m/s
gust,
m/s
humid.,
%
clouds,
%
prec.,
mm/h
press.,
hPa
HPBL,
m
17 april, sat
sat1700:00−9ssw2495100 0.7 100672
03:00−11s2295100 0.5 100814
06:00−17sse229842 0.6 101111
09:00−12sse35848 0.0 1012205
12:00−7se357643 0.0 1011502
15:00−5sse467061 0.0 1009778
18:00−5sse577674 0.0 1009541
21:00−14se23885 0.0 101010
18 april, sun
sun1800:00−21se12997 0.0 10119
03:00−24sse2210063 0.0 10139
06:00−25sse2210044 0.0 101410
09:00−15ese239040 0.0 1013173
12:00−7se47745 0.0 1010410
15:00−3sse696810 0.0 1009559
18:00−3sse4975100 0.0 1009463
21:00−9s238323 0.0 101220
19 april, mon
mon1900:00−14sse229188 0.0 101712
03:00−16se22939 0.0 102015
06:00−20sse229832 0.0 102510
09:00−11ese228611 0.0 1027125
12:00−7ese22785 0.0 1029277
15:00−3ese23795 0.0 1030395
18:00−1e23795 0.0 1030376
21:00−8e11865 0.0 103110
20 april, tue
tue2000:00−13se229180 0.0 10329
03:00−15se229542 0.0 103310
06:00−17sse229510 0.0 10349
09:00−7ese3585100 0.0 1033146
12:000ese5994100 0.0 1030297
15:00+1ese5898100 0.0 1029177
18:00+2ese589256 0.0 1029191
21:000ese4777100 0.0 1030105
21 april, wed
wed2100:00−3se478391 0.0 103195
03:00−7se348699 0.0 103139
06:00−13sse329592 0.0 103313
09:00−5se488865 0.0 1032198
12:000se510967 0.0 1031574
15:00+1se499922 0.0 1030357
18:00+1se4795100 0.0 1030208
21:00−3ese3485100 0.0 103031